Погода в Дорадо

Пуэрто-Рико     18°25′58″N   66°16′47″W
темп.,
°C
ветер,
м/с
пор.,
м/с
влажн.,
%
обл.,
%
осадки,
мм/ч
давл.,
гПа
погр.,
м
30 ноября, вт
вт3023:00+25ю11805 0.4 101571
02:00+24ююв228388 0.5 101486
05:00+24ююв338784 0.3 1014106
08:00+25юв3485100 0.6 1016184
11:00+28в456711 0.7 1017843
14:00+29всв6560100 0.7 10141117
17:00+27всв77757 0.0 1014609
20:00+26в57778 0.0 1016568
1 декабря, ср
ср123:00+25вюв468065 0.4 1016511
02:00+24вюв458276 0.5 1015527
05:00+25вюв358191 0.4 1016473
08:00+25вюв358069 0.7 1017503
11:00+28всв666735 0.1 10181117
14:00+28всв677052 0.1 10161052
17:00+27всв6878100 0.8 1015706
20:00+25всв588464 2.1 1017473
2 декабря, чт
чт223:00+25в588627 0.4 1017551
02:00+25вюв578876 0.9 1015521
05:00+25вюв588851 0.2 1015553
08:00+25вюв578433 0.7 1017543
11:00+28в786925 0.2 10171170
14:00+28всв777178 0.3 10141119
17:00+27в686869 0.1 1014760
20:00+26в4678100 0.1 1015536
3 декабря, пт
пт323:00+26в468094 0.1 1015586
02:00+26в4577100 0.1 1014502
05:00+25в4681100 0.1 1013517
08:00+26вюв4682100 0.6 1015519
11:00+28всв666920 0.2 10151122
14:00+28всв666923 0.3 10121107
17:00+27всв677522 0.1 1012753
20:00+26всв5780100 0.2 1014582
4 декабря, сб
сб423:00+25всв5783100 0.6 1014530
02:00+25всв47838 1.8 1014486
05:00+25в578568 0.6 1014601
08:00+25в588348 1.1 1016651
11:00+27в787554 0.9 1017983
14:00+28всв787034 1.0 10141154
17:00+27в78741 0.4 1014945
20:00+25в588118 0.6 1016644